Location: Clermont
(50.2608°N, 4.3172°E)
Time: 05:47:37
(UTC+00:00)

Cosmos 1703 Rocket - Pass Details

Date: 13 August 2020
Orbit: 605 x 634 km, 82.5° (Epoch: 23 September)

Event Time Altitude Azimuth Distance (km) Brightness Sun altitude
Rises 20:28:05 0° 354° (N) 2,887 7.8 -12.1°
Reaches altitude 10° 20:30:23 10° 360° (N) 1,974 6.7 -12.4°
Maximum altitude 20:34:36 48° 75° (ENE) 805 3.9 -12.9°
Enters shadow 20:37:18 20° 141° (SE) 1,398 4.7 -13.2°
